DW4183 Weather Reports


time (UTC)temp
F
wind
direction
speed
knots
gust
knots
rain 1hr
in
rain 24hr
in
rain mn
in
humidity
%
barometer
mb
20260906071555 70 182 0.0 0.0 0.00 0.00 0.00 90 1008.7
20260906070113 70 182 0.0 0.0 0.00 0.00 0.00 90 1008.8
20260906064552 70 182 0.0 0.0 0.00 0.00 0.00 90 1009.1
20260906063050 70 182 0.0 0.0 0.00 0.00 0.00 90 1009.2
20260906061601 70 182 0.0 0.0 0.00 0.00 0.00 90 1009.4
20260906060047 70 182 0.0 0.0 0.00 0.00 0.00 90 1009.6
20260906054546 70 182 0.0 0.0 0.00 0.00 0.00 90 1009.8
20260906053050 70 169 0.0 0.0 0.00 0.00 0.00 90 1009.7
20260906051545 71 169 0.0 0.0 0.00 0.00 0.00 90 1009.9
20260906050104 71 169 0.0 0.0 0.00 0.00 0.00 89 1009.9
20260906044544 71 169 0.0 0.0 0.00 0.00 0.00 89 1010.0
20260906043050 71 169 0.0 0.0 0.00 0.00 0.00 89 1010.1
20260906041540 71 169 0.0 0.0 0.00 0.00 0.00 89 1010.1
20260906040048 71 169 0.0 0.0 0.00 0.00 0.00 89 1010.3
20260906034537 71 169 0.0 0.0 0.00 0.00 0.00 89 1010.4
20260906033038 71 169 0.0 0.0 0.00 0.00 0.00 89 1010.3
20260906031536 72 169 0.0 0.0 0.00 0.00 0.00 88 1010.3
20260906030036 72 169 0.0 0.0 0.00 0.00 0.00 88 1010.2
20260906024536 72 169 0.0 0.0 0.00 0.00 0.00 89 1010.2
20260906023044 72 169 0.0 0.0 0.00 0.00 0.00 88 1009.9
20260906021534 73 169 0.0 0.0 0.00 0.00 0.00 88 1009.8
20260906020033 73 169 0.0 0.0 0.00 0.00 0.00 88 1009.8
20260906014543 73 169 0.0 0.0 0.00 0.00 0.00 87 1009.7
20260906013034 73 169 0.9 0.0 0.00 0.00 0.00 87 1009.8
20260906011535 74 169 0.0 0.0 0.00 0.00 0.00 85 1009.5
20260906010031 74 169 0.0 0.0 0.00 0.00 0.00 83 1009.4
20260906004531 75 169 0.0 0.0 0.00 0.00 0.00 83 1009.6
20260906003031 76 169 0.0 0.0 0.00 0.00 0.00 82 1009.1
20260906001531 76 169 0.0 0.0 0.00 0.00 0.00 80 1008.9
20260906000030 77 169 0.0 0.0 0.00 0.00 0.00 79 1008.7
20260905234530 78 169 0.0 0.0 0.00 0.00 0.00 78 1008.6
20260905233029 79 169 0.9 0.0 0.00 0.00 0.00 78 1008.6
20260905231529 80 169 0.9 0.0 0.00 0.00 0.00 74 1008.3
20260905230028 81 288 0.9 0.0 0.00 0.00 0.00 73 1008.2
20260905224534 81 273 1.7 0.0 0.00 0.00 0.00 69 1008.2
20260905223033 80 269 0.9 0.0 0.00 0.00 0.00 73 1008.3
20260905221527 80 27 0.9 0.0 0.00 0.00 0.00 74 1008.2
20260905220025 80 47 0.0 0.0 0.00 0.00 0.00 74 1008.3
20260905214524 80 317 0.0 0.0 0.00 0.00 0.00 76 1008.9
20260905213024 79 250 0.0 0.0 0.00 0.00 0.00 75 1008.9
20260905211525 79 243 0.0 0.0 0.00 0.00 0.00 76 1009.0
20260905210023 79 348 0.9 0.0 0.00 0.00 0.00 78 1009.2
20260905204522 78 278 0.9 0.0 0.00 0.00 0.00 78 1009.0
20260905203022 77 304 0.0 0.0 0.00 0.00 0.00 79 1009.0
20260905201522 76 302 0.0 0.0 0.00 0.00 0.00 80 1009.0
20260905200019 76 302 0.0 0.0 0.00 0.00 0.00 81 1009.4
20260905194523 75 302 0.9 0.0 0.00 0.00 0.00 81 1009.6
20260905193022 76 303 0.9 0.0 0.00 0.00 0.00 81 1009.4
20260905191519 76 305 0.9 0.0 0.00 0.00 0.00 82 1009.3
20260905190039 75 301 0.0 0.0 0.00 0.00 0.00 84 1008.9
20260905184518 74 302 0.0 0.0 0.00 0.00 0.00 87 1008.9
20260905183018 73 301 0.0 0.0 0.00 0.00 0.00 86 1008.9
20260905181518 73 298 1.7 0.0 0.00 0.00 0.00 84 1009.9
20260905180019 75 137 1.7 0.0 0.00 0.00 0.00 77 1009.7
20260905174514 84 333 3.5 0.0 0.00 0.00 0.00 65 1011.2
20260905173012 91 336 0.9 0.0 0.00 0.00 0.00 54 1009.9
20260905171512 91 2 0.9 0.0 0.00 0.00 0.00 58 1010.1
20260905170010 92 299 0.9 0.0 0.00 0.00 0.00 54 1010.4
20260905164506 91 325 0.9 0.0 0.00 0.00 0.00 54 1010.4
20260905163008 89 238 1.7 0.0 0.00 0.00 0.00 56 1010.5
20260905161600 88 323 1.7 0.0 0.00 0.00 0.00 59 1010.6
20260905160114 88 330 0.9 0.0 0.00 0.00 0.00 63 1011.1
20260905154553 86 350 1.7 0.0 0.00 0.00 0.00 64 1010.9
20260905153058 85 319 0.0 0.0 0.00 0.00 0.00 69 1010.8
20260905151546 84 238 0.9 0.0 0.00 0.00 0.00 71 1010.8
20260905150045 82 332 0.9 0.0 0.00 0.00 0.00 73 1010.8
20260905144539 80 331 0.0 0.0 0.00 0.00 0.00 78 1010.9
20260905143039 79 279 0.0 0.0 0.00 0.00 0.00 80 1011.1
20260905141534 78 279 0.9 0.0 0.00 0.00 0.00 82 1011.0
20260905140031 77 276 0.9 0.0 0.00 0.00 0.00 83 1010.9
20260905134527 76 280 0.0 0.0 0.00 0.00 0.00 85 1011.1
20260905133031 75 284 0.0 0.0 0.00 0.00 0.00 87 1011.2
20260905131533 74 257 0.0 0.0 0.00 0.00 0.00 88 1011.3
20260905130036 73 165 0.9 0.0 0.00 0.00 0.00 89 1011.3
20260905124524 73 175 0.0 0.0 0.00 0.00 0.00 91 1011.4
20260905123024 72 175 0.0 0.0 0.00 0.00 0.00 92 1011.5
20260905121523 71 175 0.0 0.0 0.00 0.00 0.00 91 1011.3
20260905120022 70 175 0.0 0.0 0.00 0.00 0.00 91 1011.0
20260905114521 70 175 0.0 0.0 0.00 0.00 0.00 90 1011.0
20260905113021 70 175 0.0 0.0 0.00 0.00 0.00 90 1011.0
20260905111534 70 175 0.0 0.0 0.00 0.00 0.00 90 1011.1
20260905110018 70 175 0.0 0.0 0.00 0.00 0.00 90 1010.7
20260905104517 70 175 0.0 0.0 0.00 0.00 0.00 90 1010.6
20260905103017 70 175 0.0 0.0 0.00 0.00 0.00 90 1010.5
20260905101513 70 175 0.0 0.0 0.00 0.00 0.00 90 1010.3
20260905100018 70 175 0.0 0.0 0.00 0.00 0.00 89 1010.2
20260905094513 71 175 0.0 0.0 0.00 0.00 0.00 89 1010.2
20260905093010 71 175 0.0 0.0 0.00 0.00 0.00 89 1010.2
20260905091509 71 175 0.0 0.0 0.00 0.00 0.00 89 1010.3
20260905090007 71 175 0.0 0.0 0.00 0.00 0.00 89 1010.3
20260905084506 71 175 0.0 0.0 0.00 0.00 0.00 88 1010.4
20260905083004 72 175 0.0 0.0 0.00 0.00 0.00 88 1010.5
20260905081503 72 175 0.0 0.0 0.00 0.00 0.00 88 1010.5
20260905080002 72 175 0.0 0.0 0.00 0.00 0.00 87 1010.6
20260905074605 72 175 0.0 0.0 0.00 0.00 0.00 87 1010.7
20260905073105 72 175 0.0 0.0 0.00 0.00 0.00 88 1010.8